,,PA_Meas_PMT16A,,PR_Meas_QMR101_102,,RH_Meas_QMH101,,SR_Meas_QMS101,,TA_Meas_QMH101,,GenWind,,GenWind,
time,status,PA,status,PR,status,RH,status,SR,status,TA,status,DirAvg,status,SpdAvg,
2011-04-10, 00:00:04,VALID,920.231,VALID,0,VALID,95.6205,VALID,0,VALID,19.7223,VALID,33,VALID,0.587891,
2011-04-10, 00:01:04,VALID,920.248,VALID,0,VALID,95.6891,VALID,0,VALID,19.7418,VALID,33,VALID,0.127344,
2011-04-10, 00:02:04,VALID,920.262,VALID,0,VALID,95.6739,VALID,0,VALID,19.7598,VALID,33,VALID,0.371094,
2011-04-10, 00:03:04,VALID,920.285,VALID,0,VALID,95.712,VALID,0,VALID,19.7793,VALID,33,VALID,0.484375,
2011-04-10, 00:04:04,VALID,920.256,VALID,0,VALID,95.6815,VALID,0,VALID,19.7793,VALID,33,VALID,0.755859,
2011-04-10, 00:05:04,VALID,920.29,VALID,0,VALID,95.5671,VALID,0,VALID,19.7418,VALID,33,VALID,0.985547,
2011-04-10, 00:06:04,VALID,920.284,VALID,0,VALID,95.59,VALID,0,VALID,19.7013,VALID,33,VALID,0.619531,
2011-04-10, 00:07:04,VALID,920.282,VALID,0,VALID,95.6053,VALID,0,VALID,19.7418,VALID,33,VALID,0.632422,
2011-04-10, 00:08:04,VALID,920.275,VALID,0,VALID,95.7196,VALID,0,VALID,19.7418,VALID,33,VALID,0.233984,
2011-04-10, 00:09:04,VALID,920.266,VALID,0,VALID,95.712,VALID,0,VALID,19.7613,VALID,33,VALID,0.313281,
2011-04-10, 00:10:04,VALID,920.295,VALID,0,VALID,95.7577,VALID,0,VALID,19.7808,VALID,33,VALID,0,
2011-04-10, 00:11:04,VALID,920.292,VALID,0,VALID,95.8035,VALID,0,VALID,19.7808,VALID,32,VALID,0,
2011-04-10, 00:12:04,VALID,920.279,VALID,0,VALID,95.7882,VALID,0,VALID,19.7808,VALID,32,VALID,0.275781,
2011-04-10, 00:13:04,VALID,920.274,VALID,0,VALID,95.834,VALID,0,VALID,19.7598,VALID,32,VALID,0.602344,
2011-04-10, 00:14:04,VALID,920.269,VALID,0,VALID,95.8568,VALID,0,VALID,19.7808,VALID,32,VALID,0,
2011-04-10, 00:15:04,VALID,920.295,VALID,0,VALID,95.8873,VALID,0,VALID,19.7598,VALID,32,VALID,0.321094,
2011-04-10, 00:16:04,VALID,920.303,VALID,0,VALID,95.9026,VALID,0,VALID,19.7808,VALID,32,VALID,0.296875,
2011-04-10, 00:17:04,VALID,920.315,VALID,0,VALID,95.9331,VALID,0,VALID,19.7808,VALID,32,VALID,0,
2011-04-10, 00:18:04,VALID,920.309,VALID,0,VALID,95.9941,VALID,0,VALID,19.8003,VALID,32,VALID,0.667188,
2011-04-10, 00:19:04,VALID,920.284,VALID,0,VALID,96.0474,VALID,0,VALID,19.7988,VALID,32,VALID,0.66875,
2011-04-10, 00:20:04,VALID,920.312,VALID,0,VALID,96.0703,VALID,0,VALID,19.8198,VALID,32,VALID,0.728906,
2011-04-10, 00:21:04,VALID,920.34,VALID,0,VALID,96.0398,VALID,0,VALID,19.8198,VALID,32,VALID,0.747656,
2011-04-10, 00:22:04,VALID,920.312,VALID,0,VALID,96.0932,VALID,0,VALID,19.7808,VALID,32,VALID,0.486328,
2011-04-10, 00:23:04,VALID,920.334,VALID,0,VALID,96.1084,VALID,0,VALID,19.8003,VALID,32,VALID,0.655078,
2011-04-10, 00:24:04,VALID,920.361,VALID,0,VALID,96.1389,VALID,0,VALID,19.8003,VALID,32,VALID,0.649219,
2011-04-10, 00:25:04,VALID,920.368,VALID,0,VALID,96.1465,VALID,0,VALID,19.8003,VALID,32,VALID,0.666016,
2011-04-10, 00:26:04,VALID,920.363,VALID,0,VALID,96.1694,VALID,0,VALID,19.8198,VALID,32,VALID,0.348828,
2011-04-10, 00:27:04,VALID,920.41,VALID,0,VALID,96.1923,VALID,0,VALID,19.8003,VALID,32,VALID,0,
2011-04-10, 00:28:04,VALID,920.39,VALID,0,VALID,96.1846,VALID,0,VALID,19.8198,VALID,32,VALID,0,
2011-04-10, 00:29:04,VALID,920.383,VALID,0,VALID,96.2075,VALID,0,VALID,19.8003,VALID,32,VALID,0,
2011-04-10, 00:30:05,VALID,920.413,VALID,0,VALID,96.2075,VALID,0,VALID,19.7988,VALID,32,VALID,0.096875,
2011-04-10, 00:31:05,VALID,920.373,VALID,0,VALID,96.2456,VALID,0,VALID,19.8393,VALID,32,VALID,0.263672,
2011-04-10, 00:32:05,VALID,920.336,VALID,0,VALID,96.2304,VALID,0,VALID,19.8183,VALID,32,VALID,0.374609,
2011-04-10, 00:33:05,VALID,920.344,VALID,0,VALID,96.2533,VALID,0,VALID,19.8183,VALID,32,VALID,0,
2011-04-10, 00:34:05,VALID,920.346,VALID,0,VALID,96.2609,VALID,0,VALID,19.8393,VALID,32,VALID,0.309375,
2011-04-10, 00:35:05,VALID,920.34,VALID,0,VALID,96.2685,VALID,0,VALID,19.8378,VALID,32,VALID,0.328516,
2011-04-10, 00:36:05,VALID,920.337,VALID,0,VALID,96.238,VALID,0,VALID,19.8393,VALID,32,VALID,0,
2011-04-10, 00:37:05,VALID,920.295,VALID,0,VALID,96.2304,VALID,0,VALID,19.8783,VALID,32,VALID,0.101953,
2011-04-10, 00:38:05,VALID,920.308,VALID,0,VALID,96.1999,VALID,0,VALID,19.8393,VALID,32,VALID,0.194141,
2011-04-10, 00:39:05,VALID,920.32,VALID,0,VALID,96.1618,VALID,0,VALID,19.8198,VALID,32,VALID,0.0207031,
2011-04-10, 00:40:05,VALID,920.314,VALID,0,VALID,96.1846,VALID,0,VALID,19.8393,VALID,32,VALID,0,
2011-04-10, 00:41:05,VALID,920.29,VALID,0,VALID,96.1999,VALID,0,VALID,19.8588,VALID,32,VALID,0.0320312,
2011-04-10, 00:42:05,VALID,920.349,VALID,0,VALID,96.238,VALID,0,VALID,19.8783,VALID,32,VALID,0.222266,
2011-04-10, 00:43:05,VALID,920.325,VALID,0,VALID,96.238,VALID,0,VALID,19.8783,VALID,32,VALID,0.173047,
2011-04-10, 00:44:05,VALID,920.302,VALID,0,VALID,96.2151,VALID,0,VALID,19.8588,VALID,32,VALID,0.0472656,
2011-04-10, 00:45:05,VALID,920.309,VALID,0,VALID,96.2151,VALID,0,VALID,19.8588,VALID,32,VALID,0,
2011-04-10, 00:46:05,VALID,920.305,VALID,0,VALID,96.2151,VALID,0,VALID,19.8783,VALID,32,VALID,0.504687,
2011-04-10, 00:47:05,VALID,920.324,VALID,0,VALID,96.2151,VALID,0,VALID,19.8978,VALID,32,VALID,0.221875,
2011-04-10, 00:48:05,VALID,920.295,VALID,0,VALID,96.2228,VALID,0,VALID,19.8978,VALID,32,VALID,0.370703,
2011-04-10, 00:49:05,VALID,920.303,VALID,0,VALID,96.1846,VALID,0,VALID,19.8963,VALID,32,VALID,0.837109,
2011-04-10, 00:50:05,VALID,920.237,VALID,0,VALID,96.1694,VALID,0,VALID,19.8783,VALID,32,VALID,0.730469,
2011-04-10, 00:51:05,VALID,920.228,VALID,0,VALID,96.1541,VALID,0,VALID,19.8978,VALID,33,VALID,0.876562,
2011-04-10, 00:52:05,VALID,920.171,VALID,0,VALID,96.1389,VALID,0,VALID,19.8783,VALID,33,VALID,0.968359,
2011-04-10, 00:53:05,VALID,920.166,VALID,0,VALID,96.1313,VALID,0,VALID,19.8588,VALID,33,VALID,0.975391,
2011-04-10, 00:54:05,VALID,920.12,VALID,0,VALID,96.1313,VALID,0,VALID,19.8588,VALID,32,VALID,0.578516,
2011-04-10, 00:55:05,VALID,920.064,VALID,0,VALID,96.1846,VALID,0,VALID,19.8783,VALID,33,VALID,0.929297,
2011-04-10, 00:56:05,VALID,920.029,VALID,0,VALID,96.116,VALID,0,VALID,19.8393,VALID,33,VALID,0.940625,
2011-04-10, 00:57:05,VALID,920.015,VALID,0,VALID,95.9864,VALID,0,VALID,19.8003,VALID,33,VALID,1.33477,
2011-04-10, 00:58:05,VALID,919.964,VALID,0,VALID,95.9788,VALID,0,VALID,19.7808,VALID,34,VALID,1.33984,
2011-04-10, 00:59:05,VALID,919.95,VALID,0,VALID,96.0093,VALID,0,VALID,19.7418,VALID,47,VALID,1.19297,
2011-04-10, 01:00:05,VALID,919.942,VALID,0,VALID,95.9941,VALID,0,VALID,19.7418,VALID,55,VALID,1.25625,
2011-04-10, 01:01:05,VALID,919.926,VALID,0,VALID,96.0245,VALID,0.107441,VALID,19.7028,VALID,55,VALID,1.07578,
2011-04-10, 01:02:05,VALID,919.889,VALID,0,VALID,96.0245,VALID,0,VALID,19.7028,VALID,55,VALID,0.734375,
2011-04-10, 01:03:05,VALID,919.89,VALID,0,VALID,96.0322,VALID,0,VALID,19.7028,VALID,55,VALID,0.648438,
2011-04-10, 01:04:05,VALID,919.875,VALID,0,VALID,96.0322,VALID,0,VALID,19.6833,VALID,55,VALID,0.601953,
2011-04-10, 01:05:05,VALID,919.836,VALID,0,VALID,96.0703,VALID,0,VALID,19.6833,VALID,55,VALID,0.173828,
2011-04-10, 01:06:05,VALID,919.824,VALID,0,VALID,96.0855,VALID,0,VALID,19.7028,VALID,55,VALID,0.503125,
2011-04-10, 01:07:05,VALID,919.805,VALID,0,VALID,96.055,VALID,0,VALID,19.6623,VALID,55,VALID,0.833984,
2011-04-10, 01:08:05,VALID,919.785,VALID,0,VALID,96.0779,VALID,0,VALID,19.6833,VALID,55,VALID,0.192188,
2011-04-10, 01:09:05,VALID,919.779,VALID,0,VALID,96.1008,VALID,0,VALID,19.6833,VALID,55,VALID,0,
2011-04-10, 01:10:05,VALID,919.747,VALID,0,VALID,96.0779,VALID,0,VALID,19.6818,VALID,55,VALID,0,
2011-04-10, 01:11:05,VALID,919.755,VALID,0,VALID,96.0932,VALID,0,VALID,19.6818,VALID,55,VALID,0,
2011-04-10, 01:12:05,VALID,919.736,VALID,0,VALID,96.0855,VALID,0,VALID,19.7028,VALID,55,VALID,0,
2011-04-10, 01:13:05,VALID,919.72,VALID,0,VALID,96.0779,VALID,0,VALID,19.7223,VALID,55,VALID,0.795703,
2011-04-10, 01:14:05,VALID,919.704,VALID,0,VALID,96.0703,VALID,0,VALID,19.7223,VALID,55,VALID,0.649609,
2011-04-10, 01:15:05,VALID,919.717,VALID,0,VALID,96.0779,VALID,0,VALID,19.7223,VALID,55,VALID,0.641016,
2011-04-10, 01:16:05,VALID,919.696,VALID,0,VALID,96.0703,VALID,0,VALID,19.7223,VALID,55,VALID,0.487109,
2011-04-10, 01:17:05,VALID,919.651,VALID,0,VALID,96.0169,VALID,0,VALID,19.7223,VALID,55,VALID,0.315625,
2011-04-10, 01:18:05,VALID,919.633,VALID,0,VALID,96.0169,VALID,0,VALID,19.7223,VALID,55,VALID,0.201172,
2011-04-10, 01:19:05,VALID,919.602,VALID,0,VALID,95.9788,VALID,0,VALID,19.7223,VALID,55,VALID,0.260156,
2011-04-10, 01:20:05,VALID,919.596,VALID,0,VALID,95.9483,VALID,0,VALID,19.7418,VALID,55,VALID,0.338281,
2011-04-10, 01:21:05,VALID,919.562,VALID,0,VALID,95.9559,VALID,0,VALID,19.7418,VALID,54,VALID,0.513672,
2011-04-10, 01:22:05,VALID,919.582,VALID,0,VALID,95.9254,VALID,0,VALID,19.7028,VALID,55,VALID,0.660547,
2011-04-10, 01:23:05,VALID,919.534,VALID,0,VALID,95.895,VALID,0,VALID,19.7223,VALID,55,VALID,0.549609,
2011-04-10, 01:24:05,VALID,919.539,VALID,0,VALID,95.8797,VALID,0,VALID,19.7028,VALID,55,VALID,0.909766,
2011-04-10, 01:25:05,VALID,919.537,VALID,0,VALID,95.8721,VALID,0,VALID,19.7223,VALID,55,VALID,0.372266,
2011-04-10, 01:26:05,VALID,919.525,VALID,0,VALID,95.9026,VALID,0,VALID,19.7223,VALID,55,VALID,0.166016,
2011-04-10, 01:27:05,VALID,919.476,VALID,0,VALID,95.8873,VALID,0,VALID,19.7223,VALID,54,VALID,0.548437,
2011-04-10, 01:28:05,VALID,919.487,VALID,0,VALID,95.8645,VALID,0,VALID,19.7223,VALID,55,VALID,0.139453,
2011-04-10, 01:29:05,VALID,919.457,VALID,0,VALID,95.8492,VALID,0,VALID,19.7028,VALID,55,VALID,0.522266,
2011-04-10, 01:30:05,VALID,919.432,VALID,0,VALID,95.8263,VALID,0,VALID,19.7238,VALID,55,VALID,0.277734,
2011-04-10, 01:31:05,VALID,919.458,VALID,0,VALID,95.8187,VALID,0,VALID,19.7028,VALID,55,VALID,0.166016,
2011-04-10, 01:32:05,VALID,919.42,VALID,0,VALID,95.7958,VALID,0,VALID,19.7028,VALID,55,VALID,0.5,
2011-04-10, 01:33:05,VALID,919.424,VALID,0,VALID,95.7958,VALID,0,VALID,19.7238,VALID,55,VALID,0.383203,
2011-04-10, 01:34:05,VALID,919.424,VALID,0,VALID,95.8187,VALID,0,VALID,19.7238,VALID,55,VALID,0.567969,
2011-04-10, 01:35:05,VALID,919.398,VALID,0,VALID,95.834,VALID,0,VALID,19.6833,VALID,55,VALID,0.432813,
2011-04-10, 01:36:05,VALID,919.391,VALID,0,VALID,95.834,VALID,0,VALID,19.7028,VALID,55,VALID,0.335547,
2011-04-10, 01:37:05,VALID,919.369,VALID,0,VALID,95.8721,VALID,0,VALID,19.6833,VALID,55,VALID,0.482031,
2011-04-10, 01:38:05,VALID,919.336,VALID,0,VALID,95.8492,VALID,0,VALID,19.6638,VALID,55,VALID,0.394922,
2011-04-10, 01:39:05,VALID,919.32,VALID,0,VALID,95.9178,VALID,0,VALID,19.6638,VALID,55,VALID,0.134375,
2011-04-10, 01:40:05,VALID,919.274,VALID,0,VALID,95.9559,VALID,0,VALID,19.6833,VALID,55,VALID,0.129688,
2011-04-10, 01:41:05,VALID,919.249,VALID,0,VALID,95.9788,VALID,0,VALID,19.6413,VALID,55,VALID,0.384375,
2011-04-10, 01:42:05,VALID,919.211,VALID,0,VALID,96.0169,VALID,0,VALID,19.6818,VALID,55,VALID,0.021875,
2011-04-10, 01:43:05,VALID,919.199,VALID,0,VALID,96.0779,VALID,0.107441,VALID,19.7013,VALID,55,VALID,0,
2011-04-10, 01:44:05,VALID,919.18,VALID,0,VALID,96.1236,VALID,0.107441,VALID,19.7013,VALID,55,VALID,0,
2011-04-10, 01:45:05,VALID,919.175,VALID,0,VALID,96.1313,VALID,0.107441,VALID,19.6998,VALID,55,VALID,0.203516,
2011-04-10, 01:46:05,VALID,919.138,VALID,0,VALID,96.1236,VALID,0.107441,VALID,19.7013,VALID,55,VALID,0.154687,
2011-04-10, 01:47:05,VALID,919.178,VALID,0,VALID,96.1541,VALID,0.107441,VALID,19.7418,VALID,55,VALID,0.131641,
2011-04-10, 01:48:05,VALID,919.177,VALID,0,VALID,96.1694,VALID,0,VALID,19.7013,VALID,55,VALID,0,
2011-04-10, 01:49:05,VALID,919.172,VALID,0,VALID,96.1389,VALID,0,VALID,19.7013,VALID,55,VALID,0.45625,
2011-04-10, 01:50:05,VALID,919.161,VALID,0,VALID,96.0779,VALID,0,VALID,19.6623,VALID,55,VALID,1.1,
2011-04-10, 01:51:05,VALID,919.162,VALID,0,VALID,96.0779,VALID,0,VALID,19.6248,VALID,55,VALID,1.03164,
2011-04-10, 01:52:05,VALID,919.157,VALID,0,VALID,96.0779,VALID,0,VALID,19.5663,VALID,55,VALID,0.901563,
2011-04-10, 01:53:05,VALID,919.138,VALID,0,VALID,96.1236,VALID,0,VALID,19.5468,VALID,55,VALID,1.19766,
2011-04-10, 01:54:05,VALID,919.113,VALID,0,VALID,96.1999,VALID,0,VALID,19.5273,VALID,54,VALID,0.901172,
2011-04-10, 01:55:05,VALID,919.112,VALID,0,VALID,96.299,VALID,0,VALID,19.5273,VALID,54,VALID,0.559766,
2011-04-10, 01:56:05,VALID,919.072,VALID,0,VALID,96.2914,VALID,0,VALID,19.5468,VALID,54,VALID,0.607422,
2011-04-10, 01:57:05,VALID,919.099,VALID,0,VALID,96.3524,VALID,0,VALID,19.5078,VALID,54,VALID,0.380859,
2011-04-10, 01:58:05,VALID,919.056,VALID,0,VALID,96.3676,VALID,0,VALID,19.5078,VALID,54,VALID,0.346875,
2011-04-10, 01:59:05,VALID,919.038,VALID,0,VALID,96.4057,VALID,0,VALID,19.5078,VALID,54,VALID,0.273047,
2011-04-10, 02:00:05,VALID,919.063,VALID,0,VALID,96.4286,VALID,0,VALID,19.5273,VALID,54,VALID,0.150391,
2011-04-10, 02:01:05,VALID,919.021,VALID,0,VALID,96.4591,VALID,0,VALID,19.5468,VALID,54,VALID,0.297656,
2011-04-10, 02:02:05,VALID,919.027,VALID,0,VALID,96.4438,VALID,0,VALID,19.5273,VALID,54,VALID,0.292578,
2011-04-10, 02:03:05,VALID,919.034,VALID,0,VALID,96.4286,VALID,0,VALID,19.5273,VALID,54,VALID,0.417188,
2011-04-10, 02:04:05,VALID,919.016,VALID,0,VALID,96.4667,VALID,0,VALID,19.5078,VALID,54,VALID,0.385938,
2011-04-10, 02:05:05,VALID,919.003,VALID,0,VALID,96.4972,VALID,0,VALID,19.5078,VALID,54,VALID,0.26875,
2011-04-10, 02:06:05,VALID,919.027,VALID,0,VALID,96.5353,VALID,0,VALID,19.5468,VALID,54,VALID,0.292969,
2011-04-10, 02:07:05,VALID,919.024,VALID,0,VALID,96.5277,VALID,0,VALID,19.5468,VALID,54,VALID,0.537891,
2011-04-10, 02:08:05,VALID,919.027,VALID,0,VALID,96.5353,VALID,0,VALID,19.5663,VALID,54,VALID,0.713281,
2011-04-10, 02:09:05,VALID,919.024,VALID,0,VALID,96.5582,VALID,0,VALID,19.5858,VALID,54,VALID,0.918359,
2011-04-10, 02:10:05,VALID,919.009,VALID,0,VALID,96.5887,VALID,0,VALID,19.5858,VALID,37,VALID,0.898438,
2011-04-10, 02:11:05,VALID,918.975,VALID,0,VALID,96.5429,VALID,0,VALID,19.6248,VALID,37,VALID,1.09219,
2011-04-10, 02:12:05,VALID,918.944,VALID,0,VALID,96.6115,VALID,0,VALID,19.6248,VALID,37,VALID,0.965625,
2011-04-10, 02:13:05,VALID,918.915,VALID,0,VALID,96.5811,VALID,0,VALID,19.6443,VALID,36,VALID,0.833984,
2011-04-10, 02:14:05,VALID,918.953,VALID,0,VALID,96.6344,VALID,0,VALID,19.6443,VALID,37,VALID,0.414063,
2011-04-10, 02:15:05,VALID,918.909,VALID,0,VALID,96.6039,VALID,0,VALID,19.6248,VALID,37,VALID,0.842969,
2011-04-10, 02:16:05,VALID,918.903,VALID,0,VALID,96.5963,VALID,0,VALID,19.6443,VALID,36,VALID,0.832422,
2011-04-10, 02:17:05,VALID,918.896,VALID,0,VALID,96.5887,VALID,0,VALID,19.6248,VALID,37,VALID,0.783203,
2011-04-10, 02:18:05,VALID,918.89,VALID,0,VALID,96.5506,VALID,0,VALID,19.6053,VALID,36,VALID,0.738672,
2011-04-10, 02:19:05,VALID,918.874,VALID,0,VALID,96.5811,VALID,0,VALID,19.5858,VALID,37,VALID,0.483984,
2011-04-10, 02:20:05,VALID,918.875,VALID,0,VALID,96.5201,VALID,0,VALID,19.5858,VALID,36,VALID,1.15625,
2011-04-10, 02:21:05,VALID,918.904,VALID,0,VALID,96.5582,VALID,0,VALID,19.5468,VALID,36,VALID,0.723828,
2011-04-10, 02:22:05,VALID,918.901,VALID,0,VALID,96.6725,VALID,0,VALID,19.5663,VALID,36,VALID,0.506641,
2011-04-10, 02:23:05,VALID,918.903,VALID,0,VALID,96.6344,VALID,0,VALID,19.5663,VALID,36,VALID,0.769531,
2011-04-10, 02:24:05,VALID,918.877,VALID,0,VALID,96.6497,VALID,0,VALID,19.5663,VALID,36,VALID,0.691406,
2011-04-10, 02:25:05,VALID,918.881,VALID,0,VALID,96.6725,VALID,0,VALID,19.6068,VALID,36,VALID,0.793359,
2011-04-10, 02:26:05,VALID,918.875,VALID,0,VALID,96.6954,VALID,0,VALID,19.5858,VALID,36,VALID,0.875391,
2011-04-10, 02:27:05,VALID,918.862,VALID,0,VALID,96.7183,VALID,0,VALID,19.6053,VALID,36,VALID,0.451953,
2011-04-10, 02:28:05,VALID,918.804,VALID,0,VALID,96.7183,VALID,0,VALID,19.6053,VALID,37,VALID,1.1168,
2011-04-10, 02:29:05,VALID,918.809,VALID,0,VALID,96.7259,VALID,0,VALID,19.6263,VALID,51,VALID,1.06758,
2011-04-10, 02:30:05,VALID,918.78,VALID,0,VALID,96.703,VALID,0,VALID,19.6248,VALID,51,VALID,0.480078,
2011-04-10, 02:31:05,VALID,918.756,VALID,0,VALID,96.7335,VALID,0,VALID,19.6248,VALID,51,VALID,0.116797,
2011-04-10, 02:32:05,VALID,918.722,VALID,0,VALID,96.7488,VALID,0,VALID,19.6458,VALID,51,VALID,0.123047,
2011-04-10, 02:33:05,VALID,918.7,VALID,0,VALID,96.7335,VALID,0,VALID,19.6458,VALID,51,VALID,0.0375,
2011-04-10, 02:34:05,VALID,918.669,VALID,0,VALID,96.7411,VALID,0,VALID,19.6458,VALID,51,VALID,0.144922,
2011-04-10, 02:35:05,VALID,918.685,VALID,0,VALID,96.7793,VALID,0,VALID,19.6638,VALID,51,VALID,0.400781,
2011-04-10, 02:36:05,VALID,918.658,VALID,0,VALID,96.7259,VALID,0,VALID,19.6458,VALID,51,VALID,0,
2011-04-10, 02:37:05,VALID,918.695,VALID,0,VALID,96.7183,VALID,0,VALID,19.6053,VALID,51,VALID,0,
2011-04-10, 02:38:05,VALID,918.696,VALID,0,VALID,96.703,VALID,0,VALID,19.6458,VALID,51,VALID,0,
2011-04-10, 02:39:05,VALID,918.691,VALID,0,VALID,96.7411,VALID,0,VALID,19.6053,VALID,51,VALID,0,
2011-04-10, 02:40:05,VALID,918.699,VALID,0,VALID,96.764,VALID,0,VALID,19.6263,VALID,51,VALID,0.275781,
2011-04-10, 02:41:05,VALID,918.743,VALID,0,VALID,96.764,VALID,0,VALID,19.6248,VALID,51,VALID,0,
2011-04-10, 02:42:05,VALID,918.705,VALID,0,VALID,96.7716,VALID,0,VALID,19.6248,VALID,51,VALID,0,
2011-04-10, 02:43:05,VALID,918.694,VALID,0,VALID,96.7564,VALID,0,VALID,19.6458,VALID,51,VALID,0,
2011-04-10, 02:44:05,VALID,918.7,VALID,0,VALID,96.7488,VALID,0,VALID,19.6248,VALID,51,VALID,0.252344,
2011-04-10, 02:45:05,VALID,918.716,VALID,0,VALID,96.7335,VALID,0,VALID,19.6248,VALID,51,VALID,0.264453,
2011-04-10, 02:46:05,VALID,918.707,VALID,0,VALID,96.764,VALID,0,VALID,19.6248,VALID,51,VALID,0,
2011-04-10, 02:47:05,VALID,918.676,VALID,0,VALID,96.7564,VALID,0,VALID,19.6443,VALID,51,VALID,0,
2011-04-10, 02:48:05,VALID,918.674,VALID,0,VALID,96.7716,VALID,0,VALID,19.6263,VALID,51,VALID,0,
2011-04-10, 02:49:05,VALID,918.699,VALID,0,VALID,96.7793,VALID,0,VALID,19.6458,VALID,51,VALID,0,
2011-04-10, 02:50:05,VALID,918.696,VALID,0,VALID,96.7564,VALID,0,VALID,19.6248,VALID,51,VALID,0.201953,
2011-04-10, 02:51:05,VALID,918.677,VALID,0,VALID,96.7716,VALID,0,VALID,19.6248,VALID,51,VALID,0.0496094,
2011-04-10, 02:52:05,VALID,918.699,VALID,0,VALID,96.7411,VALID,0,VALID,19.6263,VALID,51,VALID,0.254297,
2011-04-10, 02:53:05,VALID,918.66,VALID,0,VALID,96.7793,VALID,0,VALID,19.6248,VALID,51,VALID,0.256641,
2011-04-10, 02:54:05,VALID,918.673,VALID,0,VALID,96.8021,VALID,0,VALID,19.6248,VALID,51,VALID,0,
2011-04-10, 02:55:05,VALID,918.678,VALID,0,VALID,96.7564,VALID,0,VALID,19.6248,VALID,51,VALID,0,
2011-04-10, 02:56:05,VALID,918.671,VALID,0,VALID,96.7488,VALID,0,VALID,19.6458,VALID,51,VALID,0,
2011-04-10, 02:57:05,VALID,918.65,VALID,0,VALID,96.764,VALID,0,VALID,19.6263,VALID,51,VALID,0.329688,
2011-04-10, 02:58:05,VALID,918.662,VALID,0,VALID,96.7488,VALID,0,VALID,19.6263,VALID,51,VALID,0.357031,
2011-04-10, 02:59:05,VALID,918.612,VALID,0,VALID,96.7716,VALID,0,VALID,19.6053,VALID,51,VALID,0.650391,
2011-04-10, 03:00:05,VALID,918.599,VALID,0,VALID,96.7107,VALID,0,VALID,19.6053,VALID,51,VALID,0.705078,
2011-04-10, 03:01:05,VALID,918.579,VALID,0,VALID,96.764,VALID,0,VALID,19.5858,VALID,51,VALID,0.654297,
2011-04-10, 03:02:05,VALID,918.561,VALID,0,VALID,96.7716,VALID,0,VALID,19.6053,VALID,51,VALID,0.691797,
2011-04-10, 03:03:05,VALID,918.533,VALID,0,VALID,96.7259,VALID,0,VALID,19.5468,VALID,51,VALID,0.683203,
2011-04-10, 03:04:05,VALID,918.556,VALID,0,VALID,96.703,VALID,0,VALID,19.5483,VALID,51,VALID,0.728906,
2011-04-10, 03:05:05,VALID,918.57,VALID,0,VALID,96.7107,VALID,0,VALID,19.5273,VALID,51,VALID,0.463281,
2011-04-10, 03:06:05,VALID,918.546,VALID,0,VALID,96.7564,VALID,0,VALID,19.5273,VALID,51,VALID,0.422266,
2011-04-10, 03:07:05,VALID,918.578,VALID,0,VALID,96.7411,VALID,0,VALID,19.5078,VALID,51,VALID,0.379687,
2011-04-10, 03:08:05,VALID,918.549,VALID,0,VALID,96.7716,VALID,0,VALID,19.5273,VALID,51,VALID,0.438281,
2011-04-10, 03:09:05,VALID,918.534,VALID,0,VALID,96.7945,VALID,0,VALID,19.5273,VALID,51,VALID,0.461719,
2011-04-10, 03:10:05,VALID,918.535,VALID,0,VALID,96.7716,VALID,0,VALID,19.5273,VALID,51,VALID,0.421484,
2011-04-10, 03:11:05,VALID,918.493,VALID,0,VALID,96.7488,VALID,0,VALID,19.5078,VALID,51,VALID,0.708594,
2011-04-10, 03:12:05,VALID,918.479,VALID,0,VALID,96.7488,VALID,0,VALID,19.4883,VALID,51,VALID,0.519531,
2011-04-10, 03:13:05,VALID,918.486,VALID,0,VALID,96.7335,VALID,0,VALID,19.4898,VALID,51,VALID,0.74375,
2011-04-10, 03:14:05,VALID,918.433,VALID,0,VALID,96.7259,VALID,0,VALID,19.4883,VALID,51,VALID,0.696875,
2011-04-10, 03:15:05,VALID,918.415,VALID,0,VALID,96.7869,VALID,0,VALID,19.4898,VALID,51,VALID,0.726172,
2011-04-10, 03:16:05,VALID,918.453,VALID,0,VALID,96.7488,VALID,0,VALID,19.4493,VALID,51,VALID,0.422266,
2011-04-10, 03:17:05,VALID,918.452,VALID,0,VALID,96.7488,VALID,0,VALID,19.4493,VALID,51,VALID,0.511328,
2011-04-10, 03:18:04,VALID,918.448,VALID,0,VALID,96.7411,VALID,0,VALID,19.4298,VALID,51,VALID,0.203516,
2011-04-10, 03:19:04,VALID,918.505,VALID,0,VALID,96.7411,VALID,0,VALID,19.4508,VALID,51,VALID,0.273438,
2011-04-10, 03:20:04,VALID,918.527,VALID,0,VALID,96.7564,VALID,0,VALID,19.4103,VALID,51,VALID,0,
2011-04-10, 03:21:04,VALID,918.508,VALID,0,VALID,96.7945,VALID,0,VALID,19.4298,VALID,51,VALID,0,
2011-04-10, 03:22:04,VALID,918.506,VALID,0,VALID,96.825,VALID,0,VALID,19.4703,VALID,51,VALID,0.415234,
2011-04-10, 03:23:04,VALID,918.521,VALID,0,VALID,96.7716,VALID,0,VALID,19.4298,VALID,51,VALID,0.628516,
2011-04-10, 03:24:04,VALID,918.506,VALID,0,VALID,96.7869,VALID,0,VALID,19.4508,VALID,51,VALID,0.378516,
2011-04-10, 03:25:04,VALID,918.505,VALID,0,VALID,96.8174,VALID,0,VALID,19.4703,VALID,51,VALID,0.684375,
2011-04-10, 03:26:04,VALID,918.514,VALID,0,VALID,96.8021,VALID,0,VALID,19.4703,VALID,51,VALID,0.446875,
2011-04-10, 03:27:04,VALID,918.505,VALID,0,VALID,96.8021,VALID,0,VALID,19.4703,VALID,51,VALID,0.421094,
2011-04-10, 03:28:04,VALID,918.487,VALID,0,VALID,96.7793,VALID,0,VALID,19.4508,VALID,51,VALID,0.372656,
2011-04-10, 03:29:04,VALID,918.496,VALID,0,VALID,96.8021,VALID,0,VALID,19.4898,VALID,51,VALID,0.158984,
2011-04-10, 03:30:04,VALID,918.474,VALID,0,VALID,96.7716,VALID,0,VALID,19.4508,VALID,51,VALID,0.235547,
2011-04-10, 03:31:04,VALID,918.497,VALID,0,VALID,96.7716,VALID,0,VALID,19.4298,VALID,51,VALID,0.021875,
2011-04-10, 03:32:04,VALID,918.485,VALID,0,VALID,96.764,VALID,0,VALID,19.4298,VALID,51,VALID,0,
2011-04-10, 03:33:04,VALID,918.501,VALID,0,VALID,96.764,VALID,0,VALID,19.4508,VALID,51,VALID,0,
2011-04-10, 03:34:04,VALID,918.479,VALID,0,VALID,96.7564,VALID,0,VALID,19.4703,VALID,51,VALID,0,
2011-04-10, 03:35:04,VALID,918.493,VALID,0,VALID,96.7183,VALID,0,VALID,19.4103,VALID,51,VALID,0.201562,
2011-04-10, 03:36:04,VALID,918.496,VALID,0,VALID,96.7335,VALID,0,VALID,19.4088,VALID,51,VALID,0.340234,
2011-04-10, 03:37:04,VALID,918.464,VALID,0,VALID,96.6878,VALID,0.107441,VALID,19.3893,VALID,51,VALID,0.367969,
2011-04-10, 03:38:04,VALID,918.477,VALID,0,VALID,96.6649,VALID,0,VALID,19.3893,VALID,51,VALID,0.219141,
2011-04-10, 03:39:04,VALID,918.477,VALID,0,VALID,96.6802,VALID,0,VALID,19.3698,VALID,51,VALID,0.137891,
2011-04-10, 03:40:04,VALID,918.472,VALID,0,VALID,96.6725,VALID,0,VALID,19.3713,VALID,51,VALID,0,
2011-04-10, 03:41:04,VALID,918.462,VALID,0,VALID,96.6802,VALID,0.107441,VALID,19.3503,VALID,51,VALID,0,
2011-04-10, 03:42:04,VALID,918.464,VALID,0,VALID,96.6725,VALID,0,VALID,19.3503,VALID,51,VALID,0,
2011-04-10, 03:43:04,VALID,918.46,VALID,0,VALID,96.6802,VALID,0,VALID,19.3308,VALID,51,VALID,0,
2011-04-10, 03:44:04,VALID,918.47,VALID,0,VALID,96.6649,VALID,0,VALID,19.3308,VALID,51,VALID,0,
2011-04-10, 03:45:04,VALID,918.454,VALID,0,VALID,96.6878,VALID,0.107441,VALID,19.3308,VALID,51,VALID,0,
2011-04-10, 03:46:04,VALID,918.45,VALID,0,VALID,96.7107,VALID,0,VALID,19.3503,VALID,51,VALID,0,
2011-04-10, 03:47:04,VALID,918.449,VALID,0,VALID,96.703,VALID,0,VALID,19.3503,VALID,51,VALID,0.389453,
2011-04-10, 03:48:04,VALID,918.44,VALID,0,VALID,96.6878,VALID,0,VALID,19.3503,VALID,51,VALID,0.322266,